OpenBCM V1.13 (Linux)

Packet Radio Mailbox

DB0FHN

[JN59NK Nuernberg]

 Login: GUEST





  
I0OJJ  > AMSAT    02.08.26 02:39l 322 Lines 15201 Bytes #999 (0) @ WW
BID : 2O1_IR0EQ
Read: OE5RCO DJ6UX GUEST
Subj: 2Line Orbital Elements
Path: DB0FHN<OE2XZR<OK1TOR<SR6DWH<SR6BBA<SR1BSZ<EA2RCF<IR0EQ
Sent: 260802/0027z @:IR0EQ.ITA.EU [Rome] $:2O1_IR0EQ

>From i0ojj@rgate.ampr.org Sun Aug  2 02:27:34 2026
Received: from rgate.ampr.org by rgate.ampr.org (JNOS2.0q.1) with SMTP
	id AA3457 ; Sun, 02 Aug 2026 02:27:34 +0200
Received: by rgate.ampr.org with SMTP
	id AA3454 ; Sun, 02 Aug 2026 02:27:02 +0200
Message-Id: <3455@rgate.ampr.org>
>From: i0ojj@rgate.ampr.org

SB KEPS @ AMSAT  $ORB26214.1
2Line Orbital Elements 26214.AMSAT

QST de W1STR

AMSAT Orbital Elements for Amateur Satellites in TLE Format
>From Orbital Analysis Office
New England Sci-Tech STEM Education Center
Natick MA August 02, 2026
To all radio amateurs


These element sets describe the orbits of various satellites 
in use by the amateur radio community. For details see:
www.amsat.org/keplerian-elements-formats/

A daily update of element sets is available at:
www.amsat.org/tle/daily-bulletin.txt
or without bulletin text:
www.amsat.org/tle/dailytle.txt


AO-07
1 07530U 74089B   26213.63926538 -.00000041  00000-0  35501-4 0  9993
2 07530 101.9912 227.3602 0012545  45.8823  67.7777 12.53698900366211
UO-11
1 14781U 84021B   26213.45877080  .00001567  00000-0  16455-3 0  9992
2 14781  97.8093 178.5397 0008641  43.2536 316.9359 14.90893882263875
LO-19
1 20442U 90005G   26213.60119212  .00000104  00000-0  53670-4 0  9992
2 20442  98.8844 236.6560 0012635  74.7596 285.4984 14.34135290908906
AO-27
1 22825U 93061C   26213.45017764  .00000090  00000-0  51331-4 0  9992
2 22825  98.6854 280.8409 0007772 334.9005  25.1799 14.30953012713472
FO-29
1 24278U 96046B   26213.55771997 -.00000009  00000-0  28410-4 0  9991
2 24278  98.5207  56.2104 0349492 338.8887  19.8123 13.53276080479302
GO-32
1 25397U 98043D   26213.58172222  .00000047  00000-0  40629-4 0  9999
2 25397  99.0100 207.4918 0002373  87.1699 272.9751 14.24436408457794
ISS
1 25544U 98067A   26213.47431246  .00008515  00000-0  16079-3 0  9990
2 25544  51.6315  75.9770 0007211   0.6648 359.4349 15.49301455578771
NO-44
1 26931U 01043C   26213.48873856  .00000146  00000-0  85495-4 0  9998
2 26931  67.0509 127.1015 0005763 268.1987  91.8455 14.31971349296932
SO-50
1 27607U 02058C   26213.53594517  .00001271  00000-0  16662-3 0  9995
2 27607  64.5533 348.6669 0073975 254.1101 105.1843 14.83136052271181
CO-55
1 27844U 03031E   26213.48721227  .00000276  00000-0  13812-3 0  9992
2 27844  98.6752 221.4791 0010626  58.2108 302.0105 14.24361315198121
RS-22
1 27939U 03042A   26213.64640918  .00001117  00000-0  17988-3 0  9997
2 27939  98.3476  39.2945 0012277 120.6929 327.9802 14.73544296222247
CO-65
1 32785U 08021C   26213.58556796  .00004562  00000-0  28598-3 0  9993
2 32785  97.8308 195.9702 0007364 225.9860 134.0762 15.09847248992042
CO-66
1 32791U 08021J   26213.55128086  .00017879  00000-0  54110-3 0  9998
2 32791  97.7538 213.6702 0004573 125.0980 235.0691 15.34243184994247
RS-30
1 32953U 08025A   26213.64906762 -.00000048  00000-0 -41608-3 0  9997
2 32953  82.5081 327.1627 0019196 209.3339 150.6664 12.43181012825344
SRMSAT
1 37841U 11058D   26213.48096169  .00000367  00000-0  55495-4 0  9993
2 37841  19.9707 145.3115 0011603 342.9759 175.0326 14.11584315764226
ZACUBE-1
1 39417U 13066B   26213.46296475  .00004040  00000-0  31144-3 0  9991
2 39417  97.7988 176.0149 0043688  99.9935 260.6223 15.01439119687528
Delfi-N3xt
1 39428U 13066N   26213.41417722  .00006971  00000-0  59817-3 0  9990
2 39428  97.8316 133.6903 0075585  56.9581 303.8870 14.95585820681383
GOMX-1
1 39430U 13066Q   26213.60179950  .00001242  00000-0  19271-3 0  9998
2 39430  97.6453  51.1999 0126991 291.9046  66.8699 14.69580525676589
LO-74
1 39440U 13066AA  26213.60874202  .00003686  00000-0  34052-3 0  9999
2 39440  97.8927 162.7952 0055635 235.8077 123.7863 14.94067106683771
AO-73
1 39444U 13066AE  26213.39030505  .00007598  00000-0  46322-3 0  9998
2 39444  97.8314 185.8052 0037475  52.1429 308.3180 15.10063527686481
DTUSAT-2
1 40030U 14033W   26213.53814081  .00006837  00000-0  36384-3 0  9993
2 40030  98.0888 214.1680 0009657  83.4465 276.7865 15.15566053659557
LILACSAT-2
1 40908U 15049K   26213.65743323  .00017590  00000-0  28362-3 0  9993
2 40908  97.4606 252.2642 0008649  91.2596 268.9648 15.52945428602801
Lapan A3
1 41603U 16040E   26213.61464242  .00003244  00000-0  10281-3 0  9996
2 41603  97.1517 208.2825 0009302 201.8135 158.2714 15.33374956561777
CAS-2T
1 41847U 16066G   26213.18730455  .00000605  00000-0  94060-4 0  9994
2 41847  98.3803 288.4089 0341211 353.2371   6.4275 14.44794293511291
TechnoSat
1 42829U 17042E   26213.39151894  .00003327  00000-0  23682-3 0  9992
2 42829  97.4331   9.3488 0016454 301.7527  58.2096 15.05191061493501
AO-91
1 43017U 17073E   26213.57733326  .00008982  00000-0  38594-3 0  9992
2 43017  97.4635  79.8671 0149144 171.2095 189.1803 15.13297552472257
S-Net D
1 43186U 18014G   26213.31948316  .00004163  00000-0  21364-3 0  9998
2 43186  97.5308 117.8290 0006951 210.7831 149.2996 15.17061421465606
S-Net B
1 43187U 18014H   26213.66163531  .00004644  00000-0  23806-3 0  9992
2 43187  97.5313 118.1568 0007743 205.2829 154.8026 15.17034311465650
S-Net A
1 43188U 18014J   26213.25215570  .00004081  00000-0  20946-3 0  9996
2 43188  97.5324 117.9676 0007538 207.5601 152.5233 15.17068909465593
S-Net C
1 43189U 18014K   26213.66576956  .00004758  00000-0  24384-3 0  9991
2 43189  97.5341 118.4602 0009161 199.6282 160.4600 15.17024822464207
Ten-Koh
1 43677U 18084G   26213.52692536  .00001816  00000-0  13948-3 0  9994
2 43677  98.0764  47.8039 0008511 338.7511  21.3359 15.03114860422973
PO-101
1 43678U 18084H   26213.58150709  .00001509  00000-0  12450-3 0  9998
2 43678  98.1210  51.7827 0011553  28.5819 331.6035 15.00619803423024
QO-100
1 43700U 18090A   26213.17160237  .00000150  00000-0  00000-0 0  9999
2 43700   0.0138  83.1110 0002579  82.7054 231.5158  1.00272881 28128
MinXSS-2
1 43758U 18099A   26213.52170554  .00039650  00000-0  70318-3 0  9992
2 43758  97.4502 291.2319 0008204 106.0648 254.1507 15.50106253421146
AO-95
1 43770U 18099N   26213.61605717  .00010505  00000-0  39110-3 0  9993
2 43770  97.4349 273.7156 0008859 175.7076 184.4241 15.27629617420155
SNUSat 2
1 43782U 18099AA  26213.62679820  .00008483  00000-0  36836-3 0  9997
2 43782  97.4023 266.3244 0011618 131.5472 228.6763 15.22497666419947
SnugLite
1 43784U 18099AC  26213.60224506  .00010431  00000-0  38292-3 0  9998
2 43784  97.3829 267.4560 0004574 118.5613 241.6088 15.28120752420256
ITASat 1
1 43786U 18099AE  26213.59747968  .00006319  00000-0  29952-3 0  9993
2 43786  97.3994 264.2112 0012350 185.6362 174.4736 15.19584738419806
EAGLET 1
1 43790U 18099AJ  26213.61749731  .00004494  00000-0  25601-3 0  9990
2 43790  97.4195 262.0844 0011103 180.0935 180.0296 15.13255327419204
ESEO
1 43792U 18099AL  26213.61183871  .00001001  00000-0  75801-4 0  9998
2 43792  97.3948 249.0531 0012191 169.3382 190.8106 15.04371359418632
JO-97
1 43803U 18099AX  26213.61666960  .00017059  00000-0  50266-3 0  9993
2 43803  97.4092 276.6444 0007226 108.3285 251.8745 15.35075690420591
Suomi 100
1 43804U 18099AY  26213.62710893  .00012448  00000-0  43767-3 0  9995
2 43804  97.4153 273.8750 0011442 117.5616 242.6788 15.29439902420367
ISAT
1 43879U 18111D   26213.35619155  .00146522  00000-0  96128-3 0  9991
2 43879  97.5834 152.3668 0009426 118.7666 241.4546 15.75257213418250
UWE-4
1 43880U 18111E   26213.60827983  .00034517  00000-0  63893-3 0  9994
2 43880  97.5833 144.1828 0008828 140.5097 219.6798 15.48907666417804
Sparrow
1 43881U 18111F   26213.38119636  .00510905  11116-3  11875-2 0  9994
2 43881  97.6027 159.1525 0011162 146.1159 214.0832 15.96980145418521
Prox-1
1 44339U 19036A   26213.22761184  .00012573  00000-0  11933-2 0  9994
2 44339  23.9939 173.1437 0006130 194.5146 165.5178 14.91608245380202
Taurus 1
1 44530U 19059C   26213.57238188  .00005981  00000-0  94884-3 0  9995
2 44530  98.6453  21.2401 0009133 162.0164 198.1367 14.72541310365321
TO-108
1 44881U 19093C   26213.61432769  .00001042  00000-0  12342-3 0  9991
2 44881  97.7509 284.7344 0012224 301.2456  58.7562 14.86584360358169
RS-44
1 44909U 19096E   26213.34961773  .00000026  00000-0  56623-4 0  9999
2 44909  82.5244 309.6996 0218057  39.0382 322.6230 12.79748777308124
SALSAT
1 46495U 20068K   26213.53093206  .00007010  00000-0  24091-3 0  9993
2 46495  97.8865 219.3803 0010914 136.1976 224.0131 15.30402189322291
CSS (TIANHE-1)
1 48274U 21035A   26213.58251266  .00018858  00000-0  24205-3 0  9991
2 48274  41.4685  46.4066 0001002 286.7823  73.2905 15.58678458300253
CUTE
1 49263U 21088D   26197.83813593  .08921004  25505-5  41832-3 0  9995
2 49263  97.3907 300.4441 0014216 277.7997  82.1689 16.41647044267308
TeikyoSat 4
1 49396U 21102B   26213.59256096  .00001693  00000-0  10879-3 0  9990
2 49396  97.3657 241.3108 0013267 131.5418 228.6952 15.09656094259578
Z-Sat
1 49399U 21102E   26213.66891785  .00003954  00000-0  19362-3 0  9999
2 49399  97.3298 247.6148 0018449  88.8854 271.4494 15.18592085260343
KOSEN 1
1 49402U 21102H   26213.09127323  .00007332  00000-0  27484-3 0  9999
2 49402  97.3156 254.3870 0014763  54.5112 305.7503 15.27445310260878
HO-113
1 50466U 21131B   26213.66238436  .00000649  00000-0  21380-3 0  9997
2 50466  98.4991 305.8071 0003452 339.1084  20.9963 14.41396463241668
SNUGLITE 2
1 52899U 22065F   26213.67459336  .00000982  00000-0  19480-3 0  9999
2 52899  98.2262 358.4408 0006391 235.0330 125.0273 14.64423977217659
UmKA 1 (RS40S)
1 57172U 23091G   26213.61744437  .00005333  00000-0  24119-3 0  9991
2 57172  97.5016 272.1469 0011341 327.2826  32.7706 15.21298100170915
CubeBel-2 (EU11S)
1 57175U 23091K   26213.64696151  .00011971  00000-0  41155-3 0  9990
2 57175  97.5017 277.2964 0007966 320.0495  40.0159 15.30219008171258
